[[{"header":{"parameterUnit":"m.s-1","parameterCategory":1,"la1":30.2991,"la2":30.254,"lo1":-89.0895,"lo2":-89.0444,"dy":0.0017,"dx":0.0017,"nx":28,"ny":28,"refTime":"2025-07-28T09:00:00:Z","depth":0,"parameterNumber":2,"parameterNumberName":"U-component_of_WINDS"},"data":[0,0,0,0,0,0,0,0,0,0,0,0,0,0,0,0,0,0,0,0,0,0,0,0,0,0,0,0,0,0,0,0,0,0,0,0,0,0,0,0,0,0,0,0,0,0,0,0,0,0,0,0,0,0,0,0,0,0,2.3645,2.3646,0,2.3722,2.3723,2.3724,2.3664,2.3661,2.3658,2.3656,2.3738,2.3743,2.3747,0,0,0,0,0,0,0,0,0,0,0,0,0,2.3448,2.3452,2.3645,2.3646,2.3647,2.3722,2.3723,2.3724,2.3664,2.3661,2.3658,2.3655,2.3737,2.3742,2.3748,0,0,0,0,0,0,0,0,0,0,0,0,0,2.353,2.3453,2.3645,2.3626,2.3625,2.3722,2.3723,2.3724,2.3665,2.3661,2.3657,2.3653,2.3735,2.3742,2.3748,2.3869,0,0,2.377,2.3773,0,0,0,0,0,0,0,0,2.3526,2.3538,2.3628,2.3627,2.3627,2.3679,2.3684,2.3773,2.3666,2.365,2.3656,2.3651,2.3722,2.373,2.3753,2.3873,2.3876,2.377,2.3774,2.3777,2.3779,0,0,0,0,0,0,0,2.352,2.3534,2.3676,2.3629,2.3628,2.3614,2.3622,2.37,2.3707,2.3651,2.3647,2.3656,2.3721,2.3746,2.3754,2.3878,2.377,2.3776,2.378,2.3783,2.41,2.4104,0,0,0,0,0,0,2.3516,2.353,2.3673,2.3678,2.3565,2.3621,2.3629,2.3666,2.3706,2.3708,2.366,2.3653,2.3736,2.3746,2.3757,2.3901,2.3777,2.3784,2.3788,2.4096,2.4101,2.4105,0,0,0,0,0,0,2.3512,2.3529,2.367,2.3603,2.3619,2.3628,2.3671,2.367,2.3695,2.3712,2.3714,2.3684,2.3734,2.3747,2.3841,2.3903,2.3787,2.3793,2.4091,2.4097,2.4103,2.4189,0,0,0,0,0,0,2.3506,2.3528,2.3574,2.3604,2.3623,2.3753,2.3674,2.3674,2.3707,2.3699,2.3736,2.3738,2.3732,2.3831,2.3848,2.391,2.3799,2.4085,2.4094,2.4101,2.4181,2.4198,2.4212,0,0,0,0,0,2.35,2.3596,2.3576,2.3594,2.368,2.3756,2.3767,2.3757,2.3712,2.3758,2.3769,2.3737,2.3893,2.3841,2.386,2.3925,2.4081,2.4091,2.4101,2.4174,2.4194,2.4212,0,0,0,0,0,0,2.3574,2.3599,2.3578,2.3687,2.372,2.3746,2.3804,2.3779,2.3827,2.3818,2.3804,2.3812,2.3911,2.3927,2.3869,2.4043,2.398,2.3994,2.4029,2.4049,2.4064,2.4059,2.3804,0,0,0,0,0,2.3603,2.3661,2.3681,2.3775,2.3792,2.3795,2.3828,2.3817,2.3851,2.3865,2.3883,2.3918,2.3975,2.4013,2.4066,2.4182,2.419,2.4236,2.4252,2.4264,2.4277,2.4339,2.436,2.4137,2.4137,2.4137,0,0,2.3663,2.3684,2.3723,2.379,2.3815,2.3876,2.3808,2.3876,2.3922,2.3876,2.3966,2.398,2.4018,2.4124,2.4171,2.414,2.434,2.4277,2.4287,2.4292,2.4352,2.4373,2.4391,2.4144,2.4142,2.4141,0,0,2.3806,2.3827,2.3908,2.3933,2.397,2.3971,2.399,2.402,2.4027,2.4117,2.4083,2.4137,2.4236,2.4264,2.4291,2.4443,2.4415,2.446,2.4542,2.4604,2.4621,2.4637,2.4691,2.4711,2.4472,2.4473,2.4473,0,2.3877,2.3968,2.3953,2.4023,2.4054,2.4013,2.4095,2.412,2.4173,2.4196,2.416,2.4281,2.4304,2.4416,2.4452,2.4476,2.4498,2.4457,2.462,2.4635,2.4649,2.4701,2.4721,2.4478,2.4477,2.4477,2.4476,0,2.4054,2.4117,2.4178,2.4228,2.4266,2.4342,2.4339,2.4379,2.4364,2.4369,2.446,2.4486,2.4543,2.4568,2.4556,2.4679,2.4658,2.4621,2.4558,2.4676,2.4725,2.4744,2.4485,2.4484,2.4482,2.4481,0,0,2.4247,2.4286,2.4309,2.4331,2.4368,2.4417,2.4491,2.4546,2.4581,2.4618,2.468,2.4763,2.4729,2.476,2.4749,2.4803,2.4921,2.4759,2.476,2.4789,2.5059,2.5087,2.511,2.4902,2.4906,2.4909,2.5055,0,2.4391,2.4519,2.4506,2.4628,2.4687,2.4648,2.4712,2.4742,2.4748,2.48,2.4807,2.4866,2.4816,2.4834,2.4885,2.4896,2.4975,2.4885,2.4961,2.4964,2.4954,2.5135,2.5165,2.5302,2.5074,2.5077,2.508,0,2.4577,2.4619,2.4747,2.4773,2.4798,2.4856,2.4904,2.4953,2.4986,2.4987,2.5021,2.5001,2.5076,2.5009,2.5112,2.5051,2.5081,2.5091,2.5096,2.5104,2.503,2.5148,2.5346,2.5367,2.5109,2.5107,2.5105,0,2.4706,2.4795,2.4882,2.4902,2.4936,2.4977,2.4993,2.5022,2.5055,2.5098,2.512,2.5171,2.52,2.524,2.5235,2.5187,2.534,2.5273,2.5343,2.5344,2.5379,2.5377,2.5585,2.5397,2.5396,2.5396,2.5396,0,2.4869,2.4949,2.494,2.4994,2.5082,2.5067,2.5154,2.5165,2.5191,2.5247,2.5216,2.527,2.5258,2.5312,2.5308,2.5394,2.5407,2.541,2.5409,2.5414,2.5413,2.5434,2.5425,2.5401,2.54,2.5399,2.5398,0,2.5029,2.5026,2.5119,2.5142,2.5149,2.5213,2.5233,2.5285,2.5287,2.5358,2.5374,2.5379,2.544,2.5438,2.5508,2.5505,2.5611,2.5598,2.56,2.5597,2.5668,2.5662,2.5897,2.5927,2.5719,2.5721,2.5723,0,2.5133,2.5193,2.5222,2.5257,2.5275,2.5331,2.5364,2.5352,2.5388,2.5429,2.5475,2.5533,2.5578,2.5677,2.5688,2.5741,2.5729,2.5808,2.5737,2.574,2.5731,2.5728,2.5734,2.5822,2.5825,2.5826,2.5828,0,2.532,2.5315,2.5364,2.5412,2.5452,2.549,2.5524,2.5554,2.5545,2.5587,2.5648,2.5683,2.5753,2.5811,2.5861,2.5878,2.5852,2.585,2.5869,2.5875,2.5874,2.5876,2.5638,2.5845,2.5843,2.5842,2.5841,2.584,2.5456,2.5507,2.5535,2.559,2.5614,2.5646,2.5695,2.5703,2.5753,2.5808,2.5798,2.5866,2.5897,2.5961,2.5983,2.6037,2.6009,2.6037,2.6044,2.6051,2.6059,2.5865,2.6046,2.6045,2.6045,2.6044,2.6044,0,2.5641,2.5657,2.5707,2.5755,2.5799,2.5768,2.5804,2.5843,2.5903,2.5933,2.5977,2.6047,2.6102,2.6117,2.617,2.621,2.62,2.6225,2.6222,2.6227,2.6081,2.6059,2.6233,2.6233,2.6232,2.6232,2.6232,2.6232,2.5743,2.5828,2.5826,2.5922,2.5937,2.6003,2.6026,2.6056,2.608,2.6158,2.6204,2.6212,2.6236,2.629,2.634,2.6342,2.6364,2.6394,2.6392,2.6256,2.6237,2.6219,2.6199,2.6399,2.6399,2.6534,2.6535,2.6536]},{"header":{"parameterUnit":"m.s-1","parameterCategory":1,"la1":30.2991,"la2":30.254,"lo1":-89.0895,"lo2":-89.0444,"dy":0.0017,"dx":0.0017,"nx":28,"ny":28,"refTime":"2025-07-28T09:00:00:Z","depth":0,"parameterNumber":3,"parameterNumberName":"V-component_of_WINDS"},"data":[0,0,0,0,0,0,0,0,0,0,0,0,0,0,0,0,0,0,0,0,0,0,0,0,0,0,0,0,0,0,0,0,0,0,0,0,0,0,0,0,0,0,0,0,0,0,0,0,0,0,0,0,0,0,0,0,0,0,-0.9044,-0.9045,0,-0.9149,-0.915,-0.9152,-0.9202,-0.9202,-0.9202,-0.9202,-0.9311,-0.9314,-0.9316,0,0,0,0,0,0,0,0,0,0,0,0,0,-0.8888,-0.889,-0.9044,-0.9045,-0.9046,-0.9149,-0.915,-0.9152,-0.9202,-0.9202,-0.9202,-0.9202,-0.931,-0.9313,-0.9317,0,0,0,0,0,0,0,0,0,0,0,0,0,-0.897,-0.8891,-0.9043,-0.9084,-0.9088,-0.9149,-0.9151,-0.9152,-0.9202,-0.9202,-0.9202,-0.9202,-0.9309,-0.9313,-0.9317,-0.9346,0,0,-0.9331,-0.9333,0,0,0,0,0,0,0,0,-0.8966,-0.8976,-0.9076,-0.9081,-0.9086,-0.9162,-0.9135,-0.9217,-0.9202,-0.9159,-0.9202,-0.9202,-0.9261,-0.927,-0.929,-0.9351,-0.9356,-0.9331,-0.9334,-0.9336,-0.9337,0,0,0,0,0,0,0,-0.896,-0.8972,-0.9085,-0.9078,-0.9084,-0.9097,-0.9109,-0.9151,-0.9209,-0.9163,-0.9167,-0.9178,-0.9264,-0.9285,-0.9293,-0.9357,-0.9331,-0.9335,-0.9338,-0.9339,-0.9449,-0.945,0,0,0,0,0,0,-0.8947,-0.8967,-0.9082,-0.9089,-0.9025,-0.91,-0.9113,-0.9138,-0.9209,-0.922,-0.9178,-0.918,-0.9278,-0.9287,-0.9297,-0.9336,-0.9336,-0.934,-0.9342,-0.9449,-0.9449,-0.945,0,0,0,0,0,0,-0.8944,-0.8957,-0.9078,-0.9029,-0.9045,-0.9103,-0.913,-0.914,-0.9161,-0.9221,-0.9231,-0.9189,-0.9278,-0.929,-0.9334,-0.934,-0.9342,-0.9346,-0.9449,-0.9449,-0.9449,-0.9414,0,0,0,0,0,0,-0.8939,-0.8956,-0.8966,-0.9029,-0.9048,-0.9112,-0.9131,-0.9142,-0.9169,-0.9172,-0.9234,-0.9244,-0.9279,-0.9327,-0.9338,-0.9346,-0.9349,-0.9448,-0.9449,-0.9449,-0.9415,-0.9413,-0.9412,0,0,0,0,0,-0.8933,-0.8952,-0.8967,-0.898,-0.9062,-0.9112,-0.9123,-0.9163,-0.9169,-0.9181,-0.9219,-0.9242,-0.9338,-0.9331,-0.9344,-0.9354,-0.9448,-0.9449,-0.9449,-0.9415,-0.9413,-0.9412,0,0,0,0,0,0,-0.8889,-0.8961,-0.8978,-0.9017,-0.9058,-0.9121,-0.9137,-0.9159,-0.92,-0.9202,-0.925,-0.9263,-0.9303,-0.9333,-0.9323,-0.9386,-0.9395,-0.9398,-0.9365,-0.9363,-0.9362,-0.9354,-0.9353,0,0,0,0,0,-0.8883,-0.8918,-0.8979,-0.9008,-0.9027,-0.9078,-0.9102,-0.9129,-0.9174,-0.9192,-0.9233,-0.9276,-0.9316,-0.9342,-0.9382,-0.942,-0.9434,-0.9433,-0.9431,-0.943,-0.9432,-0.9456,-0.9456,-0.9452,-0.9452,-0.9452,0,0,-0.8873,-0.8916,-0.8935,-0.9,-0.9035,-0.907,-0.9093,-0.9129,-0.9156,-0.9197,-0.9241,-0.9273,-0.9324,-0.9365,-0.9385,-0.9391,-0.9437,-0.9431,-0.9429,-0.9432,-0.9457,-0.9457,-0.9457,-0.9452,-0.9452,-0.9452,0,0,-0.8871,-0.8907,-0.8936,-0.8971,-0.9024,-0.9058,-0.9065,-0.9125,-0.9148,-0.9192,-0.9225,-0.9258,-0.9325,-0.9361,-0.9388,-0.9402,-0.9425,-0.9414,-0.9406,-0.9429,-0.9429,-0.943,-0.9436,-0.9437,-0.9416,-0.9416,-0.9416,0,-0.8851,-0.8905,-0.8947,-0.8982,-0.901,-0.905,-0.908,-0.9112,-0.9176,-0.9194,-0.9201,-0.9287,-0.9325,-0.9375,-0.9379,-0.9399,-0.9409,-0.9407,-0.9425,-0.9426,-0.9428,-0.9434,-0.9436,-0.9415,-0.9415,-0.9415,-0.9415,0,-0.8878,-0.8915,-0.8932,-0.8993,-0.9023,-0.9055,-0.9103,-0.9129,-0.9154,-0.9188,-0.9234,-0.928,-0.9331,-0.9345,-0.937,-0.94,-0.9402,-0.9416,-0.9426,-0.9426,-0.9433,-0.9435,-0.9412,-0.9413,-0.9413,-0.9414,0,0,-0.885,-0.8935,-0.8941,-0.897,-0.9032,-0.9062,-0.9097,-0.9146,-0.9168,-0.9211,-0.9242,-0.9299,-0.9313,-0.9344,-0.9373,-0.9393,-0.9403,-0.9405,-0.9407,-0.9404,-0.944,-0.9429,-0.9431,-0.9418,-0.9419,-0.942,-0.9436,0,-0.8858,-0.8921,-0.8961,-0.9009,-0.9044,-0.9084,-0.9114,-0.9156,-0.9189,-0.9225,-0.9262,-0.9302,-0.9317,-0.9336,-0.9357,-0.9397,-0.9411,-0.9396,-0.9448,-0.945,-0.9434,-0.9435,-0.9423,-0.9436,-0.9439,-0.9439,-0.944,0,-0.8875,-0.8918,-0.8968,-0.9029,-0.9045,-0.9071,-0.9121,-0.9155,-0.9204,-0.9227,-0.9262,-0.9292,-0.9331,-0.9338,-0.9394,-0.9383,-0.9407,-0.943,-0.9432,-0.9438,-0.9445,-0.9442,-0.9441,-0.9443,-0.9444,-0.9444,-0.9444,0,-0.8851,-0.892,-0.896,-0.8984,-0.9055,-0.9073,-0.9103,-0.9152,-0.918,-0.9224,-0.9243,-0.9291,-0.9317,-0.9354,-0.9397,-0.9398,-0.9448,-0.9459,-0.9469,-0.9468,-0.9478,-0.9477,-0.9482,-0.9493,-0.9493,-0.9493,-0.9493,0,-0.8855,-0.8885,-0.8951,-0.8975,-0.901,-0.9057,-0.9091,-0.9124,-0.9168,-0.9201,-0.9238,-0.9268,-0.9322,-0.936,-0.9393,-0.9435,-0.9446,-0.9467,-0.9475,-0.9464,-0.9461,-0.948,-0.948,-0.9493,-0.9493,-0.9493,-0.9493,0,-0.8833,-0.8878,-0.8925,-0.8988,-0.9005,-0.9028,-0.9084,-0.911,-0.9145,-0.9186,-0.9198,-0.9254,-0.93,-0.9347,-0.9408,-0.9431,-0.9472,-0.9484,-0.9455,-0.946,-0.9468,-0.9467,-0.9486,-0.9491,-0.9498,-0.9498,-0.9497,0,-0.8833,-0.8857,-0.8924,-0.8948,-0.8978,-0.9017,-0.9046,-0.9093,-0.9122,-0.9181,-0.92,-0.9249,-0.929,-0.9362,-0.9408,-0.9456,-0.9469,-0.9473,-0.9477,-0.9465,-0.947,-0.9469,-0.9472,-0.9471,-0.9471,-0.947,-0.947,0,-0.8828,-0.885,-0.889,-0.8938,-0.8972,-0.9013,-0.9054,-0.9073,-0.9128,-0.9159,-0.9206,-0.9238,-0.9302,-0.935,-0.9404,-0.9437,-0.9463,-0.9469,-0.9474,-0.9462,-0.9445,-0.9455,-0.9451,-0.9468,-0.9468,-0.9468,-0.9469,-0.9469,-0.8818,-0.8842,-0.8893,-0.8937,-0.8973,-0.9012,-0.904,-0.9079,-0.912,-0.9175,-0.9201,-0.9248,-0.9299,-0.9374,-0.9406,-0.9445,-0.9452,-0.9459,-0.9461,-0.9462,-0.946,-0.9439,-0.9455,-0.9455,-0.9455,-0.9455,-0.9456,0,-0.8816,-0.8851,-0.8891,-0.8949,-0.8984,-0.9006,-0.9054,-0.9082,-0.9123,-0.9168,-0.9208,-0.9263,-0.9311,-0.9362,-0.9413,-0.9434,-0.9448,-0.9446,-0.9445,-0.9452,-0.945,-0.9441,-0.9434,-0.9434,-0.9434,-0.9434,-0.9434,-0.9434,-0.8819,-0.8861,-0.8888,-0.8949,-0.8985,-0.9031,-0.9057,-0.9094,-0.913,-0.919,-0.9229,-0.9262,-0.931,-0.9365,-0.941,-0.9424,-0.9441,-0.9436,-0.9453,-0.945,-0.9452,-0.9453,-0.9445,-0.9439,-0.9439,-0.9452,-0.9452,-0.9452]}]]